OGF:Dashboard

From OpenGeofiction Encyclopedia
Jump to: navigation, search
Nuclear Ship Savannah - Reactor Control Room - Center and Left Panels.jpg
OpenGeoFiction
User's Dashboard
Useful lists and links
special pages
all in one place!
OGF BLIKI ROLL
User blogs on the wiki
Aces California 13 days ago Forumstar4.png
ADB52 9 months ago Forumstar6.png
Alessa 5 months ago Forumstar6.png
Austin Huang 4 months ago Forumstar6.png
Bhj867 3 months ago Forumstar6.png
BMSOUZA 7 months ago Forumstar6.png
Deltanz 1 year ago Forumstar7.png
Eklas 15 days ago Forumstar4.png
Ernestpcosby 7 months ago Forumstar6.png
Histor 1 month ago Forumstar5.png
Katav 8 months ago Forumstar6.png
Litvania 5 months ago Forumstar6.png
Luciano 4 months ago Forumstar6.png
Myrcia 4 days ago Forumstar4.png
Niels20020 11 months ago Forumstar6.png
ParAvion 16 days ago Forumstar4.png
Pawl 1 year ago Forumstar7.png
PortCal 2 months ago Forumstar6.png
Reece202 4 months ago Forumstar6.png
Sarepava 10 months ago Forumstar6.png
Stjur 10 months ago Forumstar6.png
TheHolyEpicPenguin 6 months ago Forumstar6.png
Toadwart 11 months ago Forumstar6.png
Tparigo 24 days ago Forumstar4.png
Trabantemnaksiezyc 6 months ago Forumstar6.png
Turnsole80 5 months ago Forumstar6.png
Udi 9 months ago Forumstar6.png
Waa 1 year ago Forumstar7.png
Yuanls 1 year ago Forumstar7.png
Zhenkang 2 months ago Forumstar6.png
ZM 1 year ago Forumstar7.png

100 Most Recent Map Changesets

The data has been retrieved from this URL (XML), using the External Data MediaWiki extension.

It shows the most recent 100 changesets on the OGF database, backward from time of query.

Changeset ID User ID User Name Date and Time (UTC)
565011 7377 Crafty Baby 2018-07-15 20:53:11
565010 12292 Pav 2018-07-15 20:42:13
565009 954 BMSOUZA 2018-07-15 20:35:10
565008 12292 Pav 2018-07-15 20:33:56
565007 954 BMSOUZA 2018-07-15 20:33:14
565006 1956 kingfries 2018-07-15 20:31:36
565005 4928 Rustem Pasha 2018-07-15 20:24:42
565004 4740 fazzstinson69 2018-07-15 20:23:48
565003 12292 Pav 2018-07-15 20:23:39
565002 8026 Soboko 2018-07-15 20:18:57
565001 1355 iBallasticwolf2 2018-07-15 20:18:34
565000 12710 rbirke 2018-07-15 20:17:22
564999 4928 Rustem Pasha 2018-07-15 20:16:00
564998 12292 Pav 2018-07-15 20:10:37
564997 10594 Alsatian 2018-07-15 20:08:51
564996 4928 Rustem Pasha 2018-07-15 20:08:20
564995 13873 belmemes 2018-07-15 20:06:49
564994 13873 belmemes 2018-07-15 20:05:06
564993 1355 iBallasticwolf2 2018-07-15 20:05:04
564992 3054 Warren J 2018-07-15 20:04:57
564991 1355 iBallasticwolf2 2018-07-15 20:00:57
564990 12292 Pav 2018-07-15 20:00:46
564989 12292 Pav 2018-07-15 19:54:08
564988 13873 belmemes 2018-07-15 19:51:57
564987 14385 Schimiedefer 2018-07-15 19:49:17
564986 4928 Rustem Pasha 2018-07-15 19:49:17
564985 13873 belmemes 2018-07-15 19:45:19
564984 4928 Rustem Pasha 2018-07-15 19:36:33
564983 2963 Interstate_85 2018-07-15 19:35:40
564982 3504 arberia 2018-07-15 19:35:23
564981 12710 rbirke 2018-07-15 19:34:30
564980 2963 Interstate_85 2018-07-15 19:32:52
564979 3504 arberia 2018-07-15 19:30:15
564978 2963 Interstate_85 2018-07-15 19:29:09
564977 2963 Interstate_85 2018-07-15 19:27:36
564976 3504 arberia 2018-07-15 19:27:08
564975 1355 iBallasticwolf2 2018-07-15 19:26:48
564974 14419 AngryGroceries 2018-07-15 19:25:15
564973 12292 Pav 2018-07-15 19:25:00
564972 13873 belmemes 2018-07-15 19:24:01
564971 1130 Turnsole80 2018-07-15 19:21:05
564970 1130 Turnsole80 2018-07-15 19:19:42
564969 1130 Turnsole80 2018-07-15 19:16:41
564968 12710 rbirke 2018-07-15 19:16:24
564967 9544 kineticcrusher 2018-07-15 19:11:00
564966 13156 MarcustheMapper 2018-07-15 19:08:03
564965 12710 rbirke 2018-07-15 19:07:54
564964 13156 MarcustheMapper 2018-07-15 19:07:08
564963 7826 Felipsl 2018-07-15 19:06:02
564962 13156 MarcustheMapper 2018-07-15 19:04:20
564961 4928 Rustem Pasha 2018-07-15 19:01:24
564960 8026 Soboko 2018-07-15 19:01:13
564959 1130 Turnsole80 2018-07-15 18:57:47
564958 12710 rbirke 2018-07-15 18:55:12
564957 12710 rbirke 2018-07-15 18:52:51
564956 4928 Rustem Pasha 2018-07-15 18:51:43
564955 12710 rbirke 2018-07-15 18:47:47
564954 1355 iBallasticwolf2 2018-07-15 18:43:44
564953 7826 Felipsl 2018-07-15 18:40:29
564952 2386 thermo_nuclear 2018-07-15 18:23:00
564951 14235 Sisimut 2018-07-15 18:20:57
564950 1130 Turnsole80 2018-07-15 18:11:45
564949 9544 kineticcrusher 2018-07-15 18:03:01
564948 14235 Sisimut 2018-07-15 17:55:12
564947 14418 Anniboo 2018-07-15 17:48:13
564946 6493 Hipp_oh 2018-07-15 17:47:32
564945 9172 The_Cute_Chick 2018-07-15 17:26:27
564944 14385 Schimiedefer 2018-07-15 17:23:44
564943 14331 JammieDodger05 2018-07-15 17:18:36
564942 1559 yoyo21 2018-07-15 17:16:37
564941 1130 Turnsole80 2018-07-15 17:06:18
564940 9544 kineticcrusher 2018-07-15 16:52:10
564939 10594 Alsatian 2018-07-15 16:50:50
564938 1130 Turnsole80 2018-07-15 16:49:28
564937 9544 kineticcrusher 2018-07-15 16:47:02
564936 10594 Alsatian 2018-07-15 16:45:48
564935 10594 Alsatian 2018-07-15 16:42:42
564934 11756 Blazed 2018-07-15 16:41:31
564933 2322 Toadwart 2018-07-15 16:11:58
564932 10867 magnesium 2018-07-15 16:11:18
564931 10867 magnesium 2018-07-15 16:07:54
564930 3366 Luziyca 2018-07-15 16:00:25
564929 10594 Alsatian 2018-07-15 15:53:06
564928 14128 KaptainKvtlass 2018-07-15 15:51:13
564927 10594 Alsatian 2018-07-15 15:46:14
564926 14001 Taka 2018-07-15 15:45:35
564925 7291 MultiDavid2001b 2018-07-15 15:42:29
564924 9544 kineticcrusher 2018-07-15 15:41:36
564923 13156 MarcustheMapper 2018-07-15 15:37:09
564922 2322 Toadwart 2018-07-15 15:21:47
564921 10867 magnesium 2018-07-15 15:18:05
564920 3504 arberia 2018-07-15 15:05:25
564919 3504 arberia 2018-07-15 15:01:38
564918 3504 arberia 2018-07-15 15:00:51
564917 3504 arberia 2018-07-15 14:57:01
564916 3504 arberia 2018-07-15 14:55:41
564915 14235 Sisimut 2018-07-15 14:54:03
564914 3450 KHBritish 2018-07-15 14:53:02
564913 919 Subway 2018-07-15 14:49:03
564912 2465 eklas 2018-07-15 14:47:53

100 Most Recent Wiki Edits

15 July 2018

     22:53 

Talk:OGF:Mennowa/Introduction‎‎ (2 changes | history) . . (+886). . [Leowezy‎ (2×)]

     

22:53

(cur | prev) . . (+641). . Leowezy (talk | contribs) (Aces' V2 Flag Proposals)

     

22:45

(cur | prev) . . (+245). . Leowezy (talk | contribs) (Human Geography, Reservation)

     22:12 

(Upload log). .

[Histor‎; Tito zz‎; Turnsole80‎ (4×)]

     

22:12

. . Turnsole80 (talk | contribs) uploaded File:Badge of the NIDF.png(Created by User:Turnsole80 using materials sourced from [https://commons.wikimedia.org/wiki/Main_Page Wikimedia Commons])

     

21:33

. . Turnsole80 (talk | contribs) uploaded File:NI army camp flag.png(Created by User:Turnsole80 using materials sourced from [https://commons.wikimedia.org/wiki/Main_Page Wikimedia Commons])

     

21:32

. . Turnsole80 (talk | contribs) uploaded File:NI army ranks.png(Created by User:Turnsole80 using materials sourced from [https://commons.wikimedia.org/wiki/Main_Page Wikimedia Commons])

     

21:11

. . Turnsole80 (talk | contribs) uploaded File:Badge-army.png(Created by User:Turnsole80 using materials derived from Wikimedia Commons)

     

19:45

. . Tito zz (talk | contribs) uploaded File:SRU COA.png

     

12:10

. . Histor (talk | contribs) uploaded File:Bvillegrids.jpg(own scetch - 7/2018)

     21:29  New Ingerland Army‎ (diff | hist) . . (+2,464). . Turnsole80 (talk | contribs) (ADD text)

     21:02 

Dautrayautt‎‎ (6 changes | history) . . (-774). . [Kineticcrusher‎ (6×)]

     

21:02

(cur | prev) . . (-521). . Kineticcrusher (talk | contribs) (Added a few things to the infobox)

     

20:52

(cur | prev) . . (0). . Kineticcrusher (talk | contribs)

     

20:52

(cur | prev) . . (-3). . Kineticcrusher (talk | contribs)

     

20:51

(cur | prev) . . (+2). . Kineticcrusher (talk | contribs)

     

20:51

(cur | prev) . . (+1). . Kineticcrusher (talk | contribs)

     

00:05

(cur | prev) . . (-253). . Kineticcrusher (talk | contribs) (Added ethnic groups and demonym)

N    20:30 

Socialist Republic of Ünglend‎‎ (2 changes | history) . . (+6,818). . [Tito zz‎ (2×)]

     

20:30

(cur | prev) . . (+6,733). . Tito zz (talk | contribs)

N    

18:50

(cur | prev) . . (+85). . Tito zz (talk | contribs) (Created page with "'''''Attention! This is a historical page about a country that no longer exists.'''''")

     19:48  Talk:Main Page/DidYouKnow‎ (diff | hist) . . (+76). . Kineticcrusher (talk | contribs)
     19:46 (Forum log) . . Kineticcrusher (talk | contribs) created a new thread, Should we create natural disaster classifications?(In the real world, certain natural disasters su...)
     18:52  Ünglend‎ (diff | hist) . . (+51). . Tito zz (talk | contribs) (Dictature and Socialism)
     17:52  Eretz‎ (diff | hist) . . (+71). . Fluffr Nuttr (talk | contribs)
 m   17:36  Template:OGF:ResourceTree‎ (diff | hist) . . (-1). . Chazeltine (talk | contribs) (Updating url for The ORIGINAL Geofiction from .com to .de (the .com link redirected elsewhere))
 m   17:23  User:Eklas/Sandbox/Transport‎ (diff | hist) . . (+137). . Eklas (talk | contribs) (adding more railway lines)
 m   17:08  Portal:Countries‎ (diff | hist) . . (+75). . Chazeltine (talk | contribs) (Added link to Quick Territory Descriptions)
     16:41  Tarephia Cooperation Council‎ (diff | hist) . . (+225). . Chazeltine (talk | contribs) (Added Tigeria)
 m   14:49  User:Eklas‎ (diff | hist) . . (+186). . Eklas (talk | contribs) (updating page)
     13:32  Älved‎ (diff | hist) . . (-17). . SwissCrusader (talk | contribs) (Provinces)

     13:31 

The United Kingdoms of Winoa‎‎ (2 changes | history) . . (+652). . [Luca G‎ (2×)]

     

13:31

(cur | prev) . . (+274). . Luca G (talk | contribs) (States)

     

10:12

(cur | prev) . . (+378). . Luca G (talk | contribs) (States)

     12:11  Bronzeville‎ (diff | hist) . . (+77). . Histor (talk | contribs) (History)

     04:08 

User:BMSOUZA/Sandbox/Luslandia‎‎ (2 changes | history) . . (+1,688). . [BMSOUZA‎ (2×)]

     

04:08

(cur | prev) . . (+1,645). . BMSOUZA (talk | contribs) (Motorways)

     

03:21

(cur | prev) . . (+43). . BMSOUZA (talk | contribs) (Others)

 m   00:30 

Federal States‎‎ (3 changes | history) . . (+416). . [Mstr‎ (3×)]

 m   

00:30

(cur | prev) . . (+60). . Mstr (talk | contribs) (Economy)

 m   

00:20

(cur | prev) . . (0). . Mstr (talk | contribs) (Economy)

 m   

00:17

(cur | prev) . . (+356). . Mstr (talk | contribs) (Economy)

 m   00:30 

Mstr Sandbox/Federal States contributions‎‎ (2 changes | history) . . (+1,183). . [Mstr‎ (2×)]

 m   

00:30

(cur | prev) . . (+1,118). . Mstr (talk | contribs)

 m   

00:20

(cur | prev) . . (+65). . Mstr (talk | contribs) (August Georgington Airport)

14 July 2018

     23:06 

(Upload log). .

[PortCal‎; Aces California‎ (2×)]

     

23:06

. . PortCal (talk | contribs) uploaded File:Trevers2024CandidateBid.png

     

20:20

. . Aces California (talk | contribs) uploaded a new version of File:Mennowa V2s.png(Changed one of the flags that had an error in it.)

     

20:08

. . Aces California (talk | contribs) uploaded File:Mennowa V2s.png(V2 flags for the Mennowa collaborative project for the Federal States.)

 m   22:59  Template:Infobox geolympiad‎ (diff | hist) . . (-7). . PortCal (talk | contribs) (Removing border from logos)
     22:49 (Forum log) . . Logan230 (talk | contribs) replied on the thread Direction finder is broken(As far as I'm aware, the person in charge of th...)

 m   21:44 

Möln Hotels Group‎‎ (2 changes | history) . . (+287). . [Blgmtn‎ (2×)]

 m   

21:44

(cur | prev) . . (-1). . Blgmtn (talk | contribs)

 m   

21:41

(cur | prev) . . (+288). . Blgmtn (talk | contribs)

     20:23 

Talk:OGF:Mennowa/Introduction‎‎ (2 changes | history) . . (+1,744). . [Aces California‎ (2×)]

     

20:23

(cur | prev) . . (+70). . Aces California (talk | contribs) (Overview)

     

20:17

(cur | prev) . . (+1,674). . Aces California (talk | contribs)

     19:26  Dautrayautt‎ (diff | hist) . . (+4,276). . Kineticcrusher (talk | contribs) (Partly made the country infobox.)
     18:37  Talk:Tarephia Cooperation Council‎ (diff | hist) . . (+1,590). . Chazeltine (talk | contribs) (Major restructuring of the talk page to organize topics of disucssion. Added topics for the TCC's mission and purpose)
     17:31  Empire Coffee‎ (diff | hist) . . (+18). . Kingfries (talk | contribs) (Locations)
     16:13  Yulemon Cup/2018‎ (diff | hist) . . (+10,683). . Toadwart (talk | contribs)

Other Stuff

  • TBD